Flag for Switzerland Weather past 2 weeks in Carouge, Geneva, Switzerland

Now
33 °F

Chilly.


Feels Like: 22 °F
Forecast: 25 / 35 °F
Wind: 15 mph from Southwest

Location: Geneve-Cointrin

Current Time: Dec 27, 2014 at 6:58:52 AM

Latest Report: Dec 27, 2014 at 6:00 AM


Visibility: N/A

Pressure: 30.00 "Hg

Humidity: 91%

Dew point: 30 °F

Location of CarougeLocation

Historic Weather in Carouge — Graph

°F

Carouge temperature yesterday

Maximum temperature yesterday: 43 °F (at 3:00 PM)
Minimum temperature yesterday: 29 °F (at 11:00 PM)
Average temperature yesterday: 35 °F

Past Weeks' High & Low Weather Summary

 TemperatureHumidityPressure
High56 °F (Dec 19, 2:00 PM)97% (Dec 16, 6:00 AM)30.63 "Hg (Dec 16, 6:00 AM)
Low26 °F (Dec 23, 8:00 AM)38% (Dec 23, 2:00 PM)29.92 "Hg (Dec 13, 4:00 AM)
Average41 °F79%30.26 "Hg
* Reported Dec 12 5:00 AM — Dec 27 5:00 AM, Carouge, Weather by CustomWeather, © 2014

Note: Actual official high and low records may vary slightly from our data, if they occured in-between our weather recording intervals... More about our weather records

Advertising

Carouge weather history for previous 24 hours

 ConditionsComfort  
Time TempWeatherWind HumidityBarometerVisibility
5:00 AM
Dec 27
33 °FChilly.10 mph93%30.09 "HgN/A
4:00 AM33 °FSnow. Low clouds.8 mph92%30.15 "Hg1 mi
3:00 AM34 °FChilly.8 mph83%30.18 "HgN/A
2:00 AM33 °FChilly.7 mph85%30.20 "HgN/A
1:00 AM29 °FPassing clouds.2 mph87%30.26 "Hg12 mi
12:00 AM29 °FChilly.5 mph85%30.30 "HgN/A
11:00 PM
Dec 26
29 °FChilly.3 mph83%30.33 "HgN/A
9:00 PM32 °FChilly.2 mph71%30.38 "HgN/A
8:00 PM34 °FChilly.2 mph68%30.40 "HgN/A
7:00 PM35 °FOvercast.1 mph63%30.40 "Hg28 mi
6:00 PM36 °FChilly.3 mph60%30.40 "HgN/A
5:00 PM38 °FChilly.3 mph57%30.40 "HgN/A
4:00 PM42 °FPartly sunny.5 mph48%30.40 "Hg31 mi
3:00 PM43 °FQuite cool.7 mph44%30.41 "HgN/A
2:00 PM42 °FQuite cool.7 mph50%30.42 "HgN/A
1:00 PM42 °FPassing clouds.5 mph56%30.44 "Hg31 mi
12:00 PM41 °FQuite cool.6 mph59%30.46 "HgN/A
11:00 AM40 °FChilly.2 mph64%30.49 "HgN/A
10:00 AM34 °FScattered clouds.2 mph77%30.51 "Hg28 mi
9:00 AM31 °FChilly.1 mph85%30.52 "HgN/A
8:00 AM30 °FChilly.3 mph84%30.52 "HgN/A
7:00 AM31 °FPassing clouds.1 mph83%30.51 "Hg22 mi
6:00 AM30 °FChilly.2 mph87%30.50 "HgN/A
Weather by CustomWeather, © 2014

See weather overviewHow to use our weather pages